[[{"header":{"parameterUnit":"m.s-1","parameterCategory":1,"la1":30.2991,"la2":30.254,"lo1":-89.0895,"lo2":-89.0444,"dy":0.0017,"dx":0.0017,"nx":28,"ny":28,"refTime":"2023-03-17T21:00:00:Z","depth":0,"parameterNumber":2,"parameterNumberName":"U-component_of_WINDS"},"data":[0,0,0,0,0,0,0,0,0,0,0,0,0,0,0,0,0,0,0,0,0,0,0,0,0,0,0,0,0,0,0,0,0,0,0,0,0,0,0,0,0,0,0,0,0,0,0,0,0,0,0,0,0,0,0,0,0,0,-0.9029,-0.903,0,-0.9098,-0.9099,-0.91,-0.9065,-0.9064,-0.9062,-0.906,-0.9133,-0.9136,-0.914,0,0,0,0,0,0,0,0,0,0,0,0,0,-0.8867,-0.887,-0.9029,-0.903,-0.9031,-0.9098,-0.9099,-0.91,-0.9066,-0.9064,-0.9061,-0.9059,-0.9132,-0.9136,-0.914,0,0,0,0,0,0,0,0,0,0,0,0,0,-0.8937,-0.8871,-0.9029,-0.9022,-0.9022,-0.9098,-0.9099,-0.91,-0.9066,-0.9063,-0.9061,-0.9058,-0.913,-0.9135,-0.9141,-0.9229,0,0,-0.9157,-0.916,0,0,0,0,0,0,0,0,-0.8933,-0.8943,-0.9022,-0.9022,-0.9022,-0.907,-0.9069,-0.9144,-0.9067,-0.9049,-0.906,-0.9057,-0.9114,-0.9121,-0.914,-0.9232,-0.9235,-0.9158,-0.9161,-0.9164,-0.9165,0,0,0,0,0,0,0,-0.8928,-0.894,-0.9057,-0.9023,-0.9023,-0.9015,-0.9022,-0.9083,-0.9096,-0.9051,-0.9048,-0.9057,-0.9114,-0.9135,-0.9141,-0.9237,-0.9158,-0.9163,-0.9166,-0.9168,-0.9404,-0.9407,0,0,0,0,0,0,-0.8924,-0.8936,-0.9054,-0.9059,-0.897,-0.902,-0.9028,-0.9058,-0.9096,-0.9099,-0.9059,-0.9055,-0.9127,-0.9135,-0.9144,-0.925,-0.9164,-0.9169,-0.9172,-0.9401,-0.9405,-0.9408,0,0,0,0,0,0,-0.892,-0.8935,-0.9052,-0.8997,-0.9011,-0.9026,-0.906,-0.9061,-0.9081,-0.9102,-0.9104,-0.9078,-0.9125,-0.9136,-0.9208,-0.9252,-0.9171,-0.9176,-0.9398,-0.9402,-0.9406,-0.9463,0,0,0,0,0,0,-0.8916,-0.8934,-0.8967,-0.8998,-0.9014,-0.9115,-0.9062,-0.9064,-0.9091,-0.9086,-0.912,-0.9123,-0.9124,-0.92,-0.9213,-0.9258,-0.918,-0.9394,-0.94,-0.9405,-0.9457,-0.9469,-0.9479,0,0,0,0,0,-0.891,-0.8981,-0.8969,-0.8984,-0.9057,-0.9117,-0.9127,-0.9125,-0.9094,-0.9129,-0.9141,-0.9122,-0.9244,-0.9208,-0.9222,-0.927,-0.9391,-0.9398,-0.9405,-0.9452,-0.9467,-0.9478,0,0,0,0,0,0,-0.8957,-0.8985,-0.8972,-0.9055,-0.9084,-0.9111,-0.9155,-0.914,-0.9179,-0.9173,-0.917,-0.9178,-0.9252,-0.9267,-0.9226,-0.9356,-0.9313,-0.9323,-0.9344,-0.9358,-0.9368,-0.9364,-0.9185,0,0,0,0,0,-0.8976,-0.9023,-0.9045,-0.9116,-0.9131,-0.914,-0.9166,-0.9162,-0.9193,-0.9205,-0.9223,-0.9253,-0.9298,-0.9329,-0.9371,-0.9458,-0.9465,-0.9498,-0.9508,-0.9517,-0.9527,-0.9574,-0.9589,-0.943,-0.943,-0.943,0,0,-0.9018,-0.9039,-0.9069,-0.9125,-0.9147,-0.9196,-0.9151,-0.9204,-0.9241,-0.9213,-0.9283,-0.9296,-0.933,-0.941,-0.9446,-0.9425,-0.9571,-0.9526,-0.9532,-0.9537,-0.9582,-0.9597,-0.9611,-0.9435,-0.9434,-0.9433,0,0,-0.9119,-0.9139,-0.92,-0.9223,-0.9256,-0.9261,-0.9276,-0.9305,-0.9313,-0.9382,-0.9363,-0.9405,-0.9483,-0.9508,-0.953,-0.9638,-0.9622,-0.9652,-0.9709,-0.9755,-0.9768,-0.9779,-0.9819,-0.9833,-0.9661,-0.9661,-0.9661,0,-0.9167,-0.9239,-0.9234,-0.9289,-0.9314,-0.929,-0.9352,-0.9374,-0.942,-0.9439,-0.9414,-0.951,-0.9531,-0.9617,-0.9643,-0.9661,-0.9678,-0.965,-0.9766,-0.9777,-0.9788,-0.9826,-0.984,-0.9664,-0.9664,-0.9664,-0.9663,0,-0.9297,-0.9347,-0.9392,-0.9437,-0.9467,-0.9525,-0.9529,-0.956,-0.9553,-0.9561,-0.9631,-0.9654,-0.9701,-0.972,-0.9714,-0.9805,-0.9791,-0.9766,-0.9723,-0.9806,-0.9842,-0.9856,-0.967,-0.9668,-0.9667,-0.9666,0,0,-0.9432,-0.9471,-0.9488,-0.9507,-0.9541,-0.958,-0.9637,-0.9682,-0.9709,-0.9741,-0.9789,-0.9854,-0.9831,-0.9857,-0.9852,-0.9893,-0.9978,-0.9863,-0.9864,-0.9885,-1.008,-1.01,-1.0117,-0.9966,-0.9968,-0.9971,-1.0078,0,-0.9537,-0.9636,-0.9632,-0.9725,-0.9772,-0.9748,-0.9797,-0.9824,-0.9832,-0.9873,-0.9881,-0.9928,-0.9894,-0.9909,-0.9947,-0.9959,-1.0017,-0.9951,-1.0012,-1.0014,-1.0007,-1.0135,-1.0157,-1.0257,-1.0091,-1.0094,-1.0095,0,-0.9673,-0.9709,-0.9807,-0.9833,-0.9852,-0.9897,-0.9937,-0.9976,-1.0005,-1.0008,-1.0035,-1.0024,-1.0082,-1.0034,-1.0114,-1.0069,-1.0093,-1.0102,-1.0106,-1.0114,-1.0062,-1.0149,-1.0289,-1.0305,-1.0117,-1.0115,-1.0114,0,-0.9764,-0.9836,-0.9904,-0.9921,-0.9953,-0.9985,-1.0,-1.0026,-1.0053,-1.0088,-1.0105,-1.0146,-1.017,-1.0202,-1.0202,-1.0168,-1.0283,-1.0235,-1.0288,-1.0288,-1.0316,-1.0314,-1.0464,-1.0327,-1.0327,-1.0326,-1.0326,0,-0.9884,-0.9945,-0.9945,-0.9988,-1.0055,-1.0049,-1.0116,-1.0127,-1.015,-1.0194,-1.0175,-1.0216,-1.0213,-1.0254,-1.0254,-1.0321,-1.0331,-1.0335,-1.0335,-1.0339,-1.0338,-1.0356,-1.035,-1.033,-1.033,-1.0329,-1.0328,0,-0.9998,-1.0001,-1.0074,-1.0097,-1.0104,-1.0153,-1.0173,-1.0213,-1.0218,-1.0274,-1.0286,-1.0295,-1.0343,-1.0345,-1.0401,-1.0401,-1.0482,-1.0472,-1.0472,-1.0472,-1.0524,-1.052,-1.0693,-1.0716,-1.0562,-1.0563,-1.0564,0,-1.0076,-1.0122,-1.015,-1.0177,-1.0194,-1.0239,-1.0266,-1.026,-1.029,-1.0325,-1.036,-1.0406,-1.0443,-1.0521,-1.0532,-1.0574,-1.0568,-1.0625,-1.0574,-1.0576,-1.0571,-1.0569,-1.0574,-1.0636,-1.0638,-1.0639,-1.064,0,-1.0213,-1.0211,-1.0251,-1.0291,-1.0324,-1.0355,-1.0384,-1.0408,-1.0406,-1.0439,-1.0488,-1.0516,-1.0572,-1.0618,-1.0659,-1.0674,-1.0658,-1.0655,-1.067,-1.0676,-1.0674,-1.0678,-1.0502,-1.0652,-1.0651,-1.065,-1.065,-1.0649,-1.0313,-1.0353,-1.0379,-1.0423,-1.0444,-1.0471,-1.051,-1.0519,-1.0559,-1.0604,-1.0598,-1.0652,-1.0678,-1.0731,-1.0749,-1.0791,-1.0772,-1.0792,-1.0798,-1.0804,-1.0811,-1.0665,-1.0798,-1.0798,-1.0797,-1.0797,-1.0797,0,-1.0451,-1.0465,-1.0506,-1.0547,-1.0582,-1.0561,-1.0592,-1.0623,-1.0671,-1.0696,-1.0732,-1.0787,-1.0831,-1.0845,-1.0888,-1.0919,-1.0912,-1.0931,-1.093,-1.0934,-1.0825,-1.0809,-1.0935,-1.0935,-1.0935,-1.0935,-1.0935,-1.0935,-1.0527,-1.0594,-1.0595,-1.0672,-1.0686,-1.0739,-1.0758,-1.0783,-1.0803,-1.0866,-1.0902,-1.091,-1.0931,-1.0974,-1.1014,-1.1016,-1.1034,-1.1056,-1.1056,-1.0955,-1.0941,-1.0928,-1.0913,-1.1059,-1.1059,-1.1161,-1.1162,-1.1163]},{"header":{"parameterUnit":"m.s-1","parameterCategory":1,"la1":30.2991,"la2":30.254,"lo1":-89.0895,"lo2":-89.0444,"dy":0.0017,"dx":0.0017,"nx":28,"ny":28,"refTime":"2023-03-17T21:00:00:Z","depth":0,"parameterNumber":3,"parameterNumberName":"V-component_of_WINDS"},"data":[0,0,0,0,0,0,0,0,0,0,0,0,0,0,0,0,0,0,0,0,0,0,0,0,0,0,0,0,0,0,0,0,0,0,0,0,0,0,0,0,0,0,0,0,0,0,0,0,0,0,0,0,0,0,0,0,0,0,-8.5686,-8.5689,0,-8.588,-8.5882,-8.5884,-8.5793,-8.5789,-8.5784,-8.5779,-8.597,-8.598,-8.5989,0,0,0,0,0,0,0,0,0,0,0,0,0,-8.5233,-8.5242,-8.5686,-8.5689,-8.5691,-8.5879,-8.5882,-8.5884,-8.5794,-8.5788,-8.5782,-8.5777,-8.5967,-8.5979,-8.599,0,0,0,0,0,0,0,0,0,0,0,0,0,-8.5428,-8.5245,-8.5686,-8.5669,-8.5669,-8.5879,-8.5882,-8.5885,-8.5796,-8.5788,-8.5781,-8.5774,-8.5963,-8.5977,-8.5992,-8.6227,0,0,-8.6036,-8.6042,0,0,0,0,0,0,0,0,-8.5417,-8.5445,-8.5669,-8.5671,-8.5671,-8.5805,-8.5792,-8.6,-8.5797,-8.5748,-8.5779,-8.5771,-8.5921,-8.5938,-8.599,-8.6236,-8.6244,-8.6037,-8.6046,-8.6052,-8.6056,0,0,0,0,0,0,0,-8.5404,-8.5436,-8.5762,-8.5672,-8.5674,-8.565,-8.5669,-8.5831,-8.5872,-8.5751,-8.5745,-8.577,-8.592,-8.5977,-8.5994,-8.6247,-8.6037,-8.605,-8.6058,-8.6064,-8.6694,-8.6702,0,0,0,0,0,0,-8.5392,-8.5425,-8.5756,-8.5768,-8.5524,-8.5664,-8.5686,-8.5769,-8.5871,-8.5879,-8.5776,-8.5765,-8.5956,-8.5977,-8.6001,-8.6283,-8.6052,-8.6066,-8.6074,-8.6686,-8.6696,-8.6705,0,0,0,0,0,0,-8.5382,-8.5422,-8.5749,-8.5595,-8.5635,-8.5679,-8.5774,-8.5777,-8.5834,-8.5889,-8.5895,-8.5827,-8.5951,-8.598,-8.6172,-8.6288,-8.6072,-8.6085,-8.6677,-8.6689,-8.6701,-8.685,0,0,0,0,0,0,-8.537,-8.5419,-8.5511,-8.5598,-8.5644,-8.5919,-8.5781,-8.5786,-8.586,-8.5847,-8.5938,-8.5946,-8.5947,-8.6151,-8.6186,-8.6304,-8.6096,-8.6667,-8.6682,-8.6697,-8.6835,-8.6866,-8.6892,0,0,0,0,0,-8.5354,-8.5544,-8.5516,-8.5556,-8.5759,-8.5926,-8.5952,-8.5951,-8.5869,-8.5961,-8.5996,-8.5943,-8.627,-8.6171,-8.621,-8.6335,-8.6659,-8.6678,-8.6696,-8.6822,-8.6859,-8.6891,0,0,0,0,0,0,-8.5466,-8.5555,-8.5525,-8.5749,-8.5831,-8.5911,-8.6026,-8.5991,-8.6096,-8.6079,-8.6071,-8.6093,-8.6291,-8.6331,-8.622,-8.6567,-8.6452,-8.6479,-8.6534,-8.657,-8.6599,-8.6585,-8.6108,0,0,0,0,0,-8.5518,-8.5648,-8.5717,-8.5908,-8.5951,-8.5982,-8.6054,-8.6046,-8.613,-8.6164,-8.6213,-8.6294,-8.6415,-8.6494,-8.6608,-8.6839,-8.6858,-8.6944,-8.6972,-8.6996,-8.7019,-8.7144,-8.7184,-8.6765,-8.6764,-8.6764,0,0,-8.5624,-8.5688,-8.5771,-8.5932,-8.5995,-8.6128,-8.6011,-8.6157,-8.6255,-8.6185,-8.637,-8.6409,-8.6498,-8.6711,-8.6807,-8.6751,-8.7139,-8.7019,-8.7037,-8.7048,-8.7167,-8.7207,-8.7242,-8.6777,-8.6775,-8.6773,0,0,-8.5887,-8.5949,-8.6115,-8.6181,-8.6278,-8.6297,-8.6337,-8.6422,-8.6447,-8.6632,-8.6582,-8.6697,-8.6906,-8.6972,-8.7033,-8.7321,-8.7276,-8.7358,-8.7508,-8.763,-8.7663,-8.7692,-8.7795,-8.7832,-8.7381,-8.7381,-8.7382,0,-8.6007,-8.6208,-8.6204,-8.6356,-8.6427,-8.6372,-8.6539,-8.6602,-8.6731,-8.6781,-8.6716,-8.6977,-8.7033,-8.7261,-8.7331,-8.7382,-8.7426,-8.7348,-8.7659,-8.7688,-8.7715,-8.7814,-8.7852,-8.7391,-8.739,-8.7389,-8.7388,0,-8.635,-8.6491,-8.6613,-8.6741,-8.6827,-8.6985,-8.7004,-8.709,-8.7075,-8.71,-8.7289,-8.7355,-8.7482,-8.7535,-8.752,-8.7761,-8.7723,-8.7659,-8.7543,-8.7765,-8.7857,-8.7895,-8.7404,-8.7401,-8.7398,-8.7396,0,0,-8.669,-8.6816,-8.6861,-8.6918,-8.7021,-8.7128,-8.7283,-8.7409,-8.7484,-8.7573,-8.7703,-8.788,-8.7822,-8.7891,-8.7883,-8.799,-8.8215,-8.7913,-8.7915,-8.7967,-8.8484,-8.8532,-8.8576,-8.8185,-8.8192,-8.8198,-8.8476,0,-8.6961,-8.7236,-8.7237,-8.7489,-8.7618,-8.7567,-8.7701,-8.7778,-8.7806,-8.7917,-8.7946,-8.8073,-8.7986,-8.8027,-8.8131,-8.8166,-8.8318,-8.8145,-8.8304,-8.831,-8.8285,-8.8624,-8.8676,-8.8935,-8.8512,-8.8518,-8.8523,0,-8.7315,-8.7419,-8.7685,-8.7769,-8.7823,-8.7945,-8.8061,-8.8169,-8.8253,-8.8266,-8.8344,-8.832,-8.8475,-8.8354,-8.8567,-8.845,-8.8514,-8.8541,-8.8551,-8.8566,-8.8431,-8.8649,-8.9018,-8.9058,-8.8579,-8.8575,-8.8571,0,-8.7537,-8.7744,-8.793,-8.798,-8.8083,-8.817,-8.8216,-8.8294,-8.837,-8.847,-8.8519,-8.8635,-8.8699,-8.8788,-8.8795,-8.8706,-8.9011,-8.8889,-8.9024,-8.9024,-8.9092,-8.9088,-8.9477,-8.9132,-8.9131,-8.913,-8.913,0,-8.784,-8.8005,-8.8031,-8.8146,-8.8328,-8.8327,-8.8507,-8.8545,-8.8615,-8.8734,-8.8695,-8.8808,-8.881,-8.8924,-8.893,-8.9106,-8.9134,-8.9148,-8.9148,-8.9152,-8.9151,-8.9195,-8.9178,-8.9141,-8.9139,-8.9136,-8.9135,0,-8.8121,-8.8145,-8.8344,-8.8426,-8.845,-8.8581,-8.865,-8.8758,-8.8781,-8.8933,-8.8968,-8.9005,-8.9138,-8.9153,-8.9307,-8.931,-8.9523,-8.9503,-8.9496,-8.9493,-8.9627,-8.9615,-9.006,-9.0118,-8.9734,-8.9738,-8.9741,0,-8.8313,-8.8439,-8.8535,-8.8614,-8.8666,-8.8792,-8.887,-8.8873,-8.8955,-8.9061,-8.9156,-8.9285,-8.9389,-8.9603,-8.9642,-8.9759,-8.9742,-8.9889,-8.9759,-8.976,-8.9745,-8.9738,-8.9751,-8.9915,-8.9919,-8.9923,-8.9925,0,-8.8653,-8.8659,-8.8774,-8.8894,-8.8988,-8.9082,-8.917,-8.9236,-8.9249,-8.9343,-8.9479,-8.956,-8.9718,-8.9846,-8.9962,-9.0006,-8.9969,-8.9966,-9.0004,-9.001,-9.0002,-9.0009,-8.9566,-8.9956,-8.9953,-8.9951,-8.9949,-8.9948,-8.8896,-8.9006,-8.9091,-8.922,-8.9287,-8.937,-8.9476,-8.9514,-8.9629,-8.976,-8.9753,-8.9903,-8.9983,-9.0135,-9.0189,-9.0305,-9.0255,-9.031,-9.0324,-9.0337,-9.0352,-8.9982,-9.0325,-9.0324,-9.0324,-9.0323,-9.0322,0,-8.9234,-8.9287,-8.9406,-8.9532,-8.9633,-8.959,-8.9685,-8.9772,-8.9906,-8.9985,-9.0089,-9.0245,-9.0369,-9.0418,-9.0539,-9.0623,-9.0608,-9.0654,-9.0649,-9.066,-9.0388,-9.0344,-9.0664,-9.0664,-9.0664,-9.0664,-9.0664,-9.0664,-8.9423,-8.9607,-8.9623,-8.9839,-8.9889,-9.0038,-9.0096,-9.0172,-9.0235,-9.0413,-9.0517,-9.0549,-9.0616,-9.0741,-9.0853,-9.0863,-9.091,-9.0964,-9.0968,-9.0713,-9.0679,-9.0646,-9.0605,-9.0974,-9.0975,-9.123,-9.1232,-9.1234]}]]